Location: Brantley
(31.5822°N, 86.2569°W)
Time: 22:54:01
(UTC+00:00)

A-11 Canister half - Pass Details

Date: 22 February 2026
Orbit: 1525 x 1683 km, 47.3° (Epoch: 10 March)

Event Time Altitude Azimuth Distance (km) Brightness Sun altitude
Rises 04:08:49 0° 306° (NW) 4,675 12.0 -56.8°
Reaches altitude 10° 04:11:51 10° 304° (NW) 3,695 11.4 -57.3°
Enters shadow 04:13:51 19° 302° (WNW) 3,072 10.8 -57.7°
